SYRACUSE 3A

Last updated on Sun Apr 12 2026 00:02:51 GMT+0000 (Coordinated Universal Time)

1 28885U 05041B 26101.52987742 .00000136 00000+0 00000+0 0 9993 2 28885 4.4742 76.6458 0003826 298.8650 61.1916 1.00269498 75079
UTC large
Height (km)
Speed (km/s)
/
Latitude / Longitude
Inclination (degrees)
Orbital Period (minutes)
Azimuth
Elevation
Range (km)
Doppler Factor

Next 0 passes for location: London (51.5072 / 0.1276)

Sorry there are no passes over London.
SYRACUSE 3A